183  
ASUS44 KMOB 191013  
RWRMOB  
REGIONAL WEATHER ROUNDUP  
NATIONAL WEATHER SERVICE MOBILE AL  
500 AM CDT THU OCT 19 2017  
 
NOTE: "FAIR" INDICATES FEW OR NO CLOUDS BELOW 12,000 FEET WITH NO  
SIGNIFICANT WEATHER AND/OR S TO VISIBILITY
.  
 
* THESE STATIONS ARE PART OF THE UNIVERSITY OF SOUTH ALABAMA  
MESONET AND ARE NOT UNDER NWS OR FAA QUALITY CONTROL.
 
 
ALZ061>064-191100-  
COASTAL ALABAMA  
 
CITY SKY/WX TMP DP RH WIND PRES REMARKS
 
MOBILE REG APT CLEAR 58 53 84 CALM 30.17R  
BROOKLEY FIELD CLEAR 66 59 78 NE5 30.17R  
USA CAMPUS* NOT AVBL  
DOG RIVER* NOT AVBL  
 
 
CITY SKY/WX TMP DP RH WIND PRES REMARKS
 
GULF SHORES CLEAR 59 57 92 NE5 30.15R  
 

 
 
ALZ051>060-191100-  
INTERIOR SOUTHWEST AND SOUTH CENTRAL ALABAMA  
 
CITY SKY/WX TMP DP RH WIND PRES REMARKS
 
GREENVILLE CLEAR 53 44 71 NE3 30.20R  
EVERGREEN CLEAR 50 48 93 CALM 30.20R  
ATMORE* N/A N/A N/A N/A NE5 N/A  
ANDALUSIA/OPP CLEAR 57 46 66 NE3 30.19R  
ANDALUSIA* N/A 55 46 71 E9 30.18S  
FLORALA APT CLEAR 55 47 74 NE5 30.21R  
FLORALA* N/A 54 50 87 CALM 30.93R  
 

 
 
FLZ001>006-191100-  
WESTERN FLORIDA PANHANDLE  
 
CITY SKY/WX TMP DP RH WIND PRES REMARKS
 
PENSACOLA CLEAR 64 55 72 NE6 30.15R  
NAS PENSACOLA CLEAR 64 58 80 N6 30.14R  
MILTON PTCLDY 56 52 86 NE6 30.17R  
WHTNG S FIELD PTCLDY 61 50 67 NE8 30.16S  
 
 
CITY SKY/WX TMP DP RH WIND PRES REMARKS
 
JAY* N/A 54 50 87 N5 30.18S  
DUKE FIELD CLEAR 53 50 89 NE3 30.16R  
CRESTVIEW CLEAR 55 50 83 NE3 30.19R  
VALPARAISO CLEAR 63 54 73 NE6 30.16R  
DESTIN CLEAR 67 58 72 E7 30.16R  
 

 
 
MSZ076-079-191100-  
INTERIOR SOUTHEAST MISSISSIPPI  
 
CITY SKY/WX TMP DP RH WIND PRES REMARKS
 
LEAKESVILLE* N/A 55 52 88 SE5 30.19R  
AGRICOLA* NOT AVBL  
 

 
 
MARINE OBSERVATIONS  
 
STATION/POSITION TIME TEMP WIND PRES WAVE
 
AIR SEA DIR/SP/G HT/PER  
(UTC) (F) (DEG/KT/KT) (MB) (FT/S)  
PASCAGOULA 0900 63 40/ 6/ 7 1020.2  
PETIT BOIS ISLND 0900 69 60/ 13/ 14 1020.8  
GRAND BAY 0830 65 60/ 7 1022.0S  
KATRINA CUT 0930 69 70/ 14 1020.7S  
CEDAR POINT 0930 69 70/ 10 1020.3S  
E DAUPHIN ISLAND 1000 69 60/ 12/ 12 1020.3R  
MIDDLE BAY LIGHT 0930 66 70/ 15 1020.7R  
USCG MOBILE BAY 0900 63 74 20/ 3/ 4 1021.0  
STATE DOCKS 0900 63 79 1021.0  
MEAHER PARK 0930 64 70/ 5 1021.0S  
WEEKS BAY 0845 58 1021.0S  
FORT MORGAN 0900 68 70/ 14/ 16 N/A  
12 S ORANGE BCH 0950 76 79 100/ 16/ 17 1019.7R 4/ 5  
PENSACOLA BAY 0900 66 75 1020.9  
64 S DAUPHIN ISL 1000 78 82 90/ 16/ 19 1019.3  
67 S FORT MORGAN 0930 76 80/ 17 1019.0S  
 

 
 
SELECTED LOCATIONS ACROSS THE REGION  
 
CITY SKY/WX TMP DP RH WIND PRES REMARKS
 
NEW ORLEANS PTCLDY 62 61 96 CALM 30.13S  
GULFPORT PTCLDY 58 55 90 N3 30.14R  
PASCAGOULA AP CLEAR 57 54 89 N5 30.15R  
PASCAGOULA* N/A 54 52 94 CALM N/A  
HATTIESBURG CLEAR 49 49 100 CALM 30.19R  
LAUREL CLEAR 50 49 96 CALM 30.20R  
MERIDIAN CLEAR 47 46 97 CALM 30.21R  
JACKSON CLEAR 50 47 89 CALM 30.19R  
MONTGOMERY CLEAR 52 46 80 NE5 30.23R  
TROY CLEAR 47 47 100 CALM 30.22R  
ASHFORD* N/A 55 46 71 E9 30.18S  
DOTHAN CLEAR 54 48 80 NE6 30.22S  
PANAMA CITY CLEAR 59 56 89 N3 30.16R  
 

 
 
 
 
CLICK HERE TO GO TO PREVIOUS BULLETINS.

The Nexlab AL Page
The Nexlab FL Page
The Nexlab MS Page Main Text Page